Epoch = 2003 May 1.0 TT
T = 2003 May 14.30523 TT Peri. = 10.44779
e = 0.4899747 Node = 226.79339 2000.0
q = 1.7030954 AU Incl. = 18.14776
a = 3.3392369 AU n = 0.16152257 P = 6.10 years
Finding Charts
Magnitudes Graph
m1 = 13.5 + 5 log d + 20.0 log r
The orbital elements are printed on CBET 1767.
The charts are made with StellaNavigator Ver.2.0 for Windows (AstroArts / ASCII).
The magnitudes graphs are made with Comet for Windows.
Copyright(C) Seiichi Yoshida (comet@aerith.net). All rights reserved.